Regional Weather Roundup
Issued by NWS

Home | Current Version | Previous Version | Text Only | Print | Product List | Glossary On
Versions: 1 2 3 4 5 6 7 8 9 10 11 12 13 14 15 16 17 18 19 20 21 22 23 24 25 26 27 28 29 30 31 32 33 34 35 36 37 38 39 40 41 42 43 44 45 46 47 48 49 50
000
ASUS44 KOUN 240810
RWROK

WEATHER ROUNDUP FOR OKLAHOMA
NATIONAL WEATHER SERVICE NORMAN OK
200 AM CST FRI NOV 24 2017

NOTE: "FAIR" INDICATES FEW OR NO CLOUDS BELOW 12,000 FEET WITH NO
      SIGNIFICANT WEATHER AND/OR OBSTRUCTIONS TO VISIBILITY.

OKZ001>007-009>012-014-015-017-240900-
NORTHWEST OKLAHOMA AND THE PANHANDLE

CITY           SKY/WX    TMP DP  RH WIND       PRES   REMARKS
GAGE           CLEAR     50  34  54 SW6       29.87F
GUYMON         CLOUDY    43  34  70 SW8       29.86F
ENID/WOODRING  CLOUDY    43  36  75 CALM      29.87F
$$

OKZ016-021>023-033>039-044-045-240900-
SOUTHWEST OKLAHOMA

CITY           SKY/WX    TMP DP  RH WIND       PRES   REMARKS
LAWTON/REGL    CLOUDY    39  35  86 CALM      29.94F
LAWTON/FT SILL PTCLDY    45  37  72 CALM      29.92F
FREDERICK      CLOUDY    49  35  58 SW3       29.90F
CLINTON        CLOUDY    50  33  52 SW13      29.91F
HOBART         CLOUDY    49  35  58 S10       29.93F
$$

OKZ018>020-024>031-240900-
CENTRAL OKLAHOMA

CITY           SKY/WX    TMP DP  RH WIND       PRES   REMARKS
OKLAHOMA CITY  MOCLDY    45  33  63 S8        29.92F
OKC/WILEY POST CLEAR     51  34  52 S13       29.92F
OKC/TINKER AFB CLOUDY    48  32  52 S9        29.92F
STILLWATER     CLOUDY    47  33  58 S8        29.90F
GUTHRIE        CLOUDY    50  34  54 S8        29.90F
$$

OKZ008-013-054>072-240900-
NORTHEAST OKLAHOMA

CITY           SKY/WX    TMP DP  RH WIND       PRES   REMARKS
TULSA          CLOUDY    53  30  41 S7        29.93F
TULSA/JONES    PTCLDY    49  30  48 S3        29.94S
PONCA CITY     CLOUDY    53  34  48 S7        29.88F
BARTLESVILLE   CLOUDY    39  31  72 S3        29.91F
MUSKOGEE       PTCLDY    43  32  65 SE7       29.97F
$$

OKZ032-040>043-046>053-073>077-240900-
SOUTH CENTRAL/SOUTHEAST OKLAHOMA

CITY           SKY/WX    TMP DP  RH WIND       PRES   REMARKS
ARDMORE/DWNTWN CLEAR     43  32  65 S3        29.97S
MCALESTER      CLOUDY    51  30  44 S6        29.97F
$$




USA.gov is the U.S. government's official web portal to all federal, state and local government web resources and services.